User: anonymous   Login
Location: Columbia
(38.9520°N, 92.3340°W)
Time: 04:28:31
(UTC-05:00)
Language:

SL-08 RB Rocket - Orbit

View from above orbital plane
View from above orbital plane
View from above satellite
View from above satellite

Ground track
Ground track

The orbit data is extracted from the following two-line orbital elements,

1 26387U 00033D   14299.15167984  .00001289  00000-0  23519-3 0  6471
2 26387 098.0924 005.3622 0027723 156.8609 260.7831 14.67454817766298
Epoch (UTC): 26 October 2014 03:38:25
Eccentricity: 0.0027723
inclination: 98.0924°
perigee height: 649 km
apogee height: 689 km
right ascension of ascending node: 5.3622°
argument of perigee: 156.8609°
revolutions per day: 14.67454817
mean anomaly at epoch: 260.7831°
orbit number at epoch: 76629

The dashed part of the orbit path shows where the satellite is in the earth's shadow,  

DLR